• In Belarus
  • List of Countries
  • For 7 days
  • Water Temperature
  • Satellite Maps
  • Weather Map
  • Weather Widgets
  • user-avatar
    Login

    Hourly Weather Lubartow

    Today, 23 February, Saturday

    Time Temperature Precipitation Wind Pressure Humidity
    00:00 -3°C° 0 mm 2 mps 769 mmHg 56%
    01:00 -3°C° 0 mm 2 mps 770 mmHg 55%
    02:00 -4°C° 0 mm 2 mps 770 mmHg 54%
    03:00 -4°C° 0 mm 2 mps 769 mmHg 53%
    04:00 -4°C° 0 mm 2 mps 769 mmHg 52%
    05:00 -4°C° 0 mm 2 mps 769 mmHg 52%
    06:00 -4°C° 0 mm 2 mps 769 mmHg 51%
    07:00 -4°C° 0 mm 2 mps 769 mmHg 51%
    08:00 -3°C° 0 mm 2 mps 769 mmHg 45%
    09:00 -2°C° 0 mm 2 mps 769 mmHg 38%
    10:00 +1°C° 0 mm 2 mps 769 mmHg 32%
    11:00 +2°C° 0 mm 2 mps 769 mmHg 29%
    12:00 +3°C° 0 mm 2 mps 769 mmHg 25%
    13:00 +4°C° 0 mm 2 mps 769 mmHg 21%
    14:00 +5°C° 0 mm 1 mps 768 mmHg 23%
    15:00 +5°C° 0 mm 1 mps 768 mmHg 24%
    16:00 +5°C° 0 mm 1 mps 768 mmHg 26%
    17:00 +4°C° 0 mm 1 mps 768 mmHg 30%
    18:00 +2°C° 0 mm 1 mps 767 mmHg 34%
    19:00 -1°C° 0 mm 2 mps 767 mmHg 38%
    20:00 +1°C° 0 mm 1 mps 767 mmHg 39%
    21:00 0°C° 0 mm 1 mps 767 mmHg 39%
    22:00 0°C° 0 mm 1 mps 767 mmHg 40%
    23:00 0°C° 0 mm 1 mps 767 mmHg 40%

    Tomorrow, 24 February, Sunday

    Time Temperature Precipitation Wind Pressure Humidity
    00:00 0°C° 0 mm 1 mps 767 mmHg 40%
    01:00 +1°C° 0 mm 1 mps 767 mmHg 40%
    02:00 +1°C° 0 mm 1 mps 766 mmHg 38%
    03:00 +1°C° 0 mm 1 mps 766 mmHg 37%
    04:00 +2°C° 0 mm 1 mps 766 mmHg 36%
    05:00 +1°C° 0 mm 1 mps 766 mmHg 36%
    06:00 +1°C° 0 mm 1 mps 766 mmHg 36%
    07:00 +1°C° 0 mm 1 mps 765 mmHg 35%
    08:00 +2°C° 0 mm 1 mps 766 mmHg 33%
    09:00 +4°C° 0 mm 1 mps 766 mmHg 30%
    10:00 +4°C° 0 mm 2 mps 766 mmHg 27%
    11:00 +6°C° 0 mm 2 mps 766 mmHg 28%
    12:00 +7°C° 0 mm 2 mps 766 mmHg 29%
    13:00 +8°C° 0 mm 2 mps 766 mmHg 30%
    14:00 +8°C° 0 mm 2 mps 765 mmHg 35%
    15:00 +8°C° 0 mm 2 mps 765 mmHg 41%
    16:00 +7°C° 0 mm 2 mps 765 mmHg 47%
    17:00 +6°C° 0 mm 2 mps 765 mmHg 52%
    18:00 +5°C° 0 mm 2 mps 765 mmHg 57%
    19:00 +3°C° 0 mm 2 mps 765 mmHg 62%
    20:00 +3°C° 0 mm 2 mps 765 mmHg 64%
    21:00 +2°C° 0 mm 2 mps 765 mmHg 66%
    22:00 +2°C° 0 mm 2 mps 765 mmHg 67%
    23:00 +2°C° 0 mm 2 mps 765 mmHg 68%

    Day after tomorrow, 25 February, Monday

    Time Temperature Precipitation Wind Pressure Humidity
    00:00 +2°C° 0 mm 2 mps 765 mmHg 70%
    01:00 +1°C° 0 mm 2 mps 765 mmHg 71%
    02:00 +1°C° 0 mm 2 mps 765 mmHg 72%
    03:00 +1°C° 0 mm 2 mps 765 mmHg 73%
    04:00 +1°C° 0 mm 2 mps 765 mmHg 74%
    05:00 -1°C° 0 mm 2 mps 764 mmHg 75%
    06:00 -1°C° 0 mm 2 mps 764 mmHg 76%
    07:00 -1°C° 0 mm 2 mps 764 mmHg 76%
    08:00 +2°C° 0 mm 2 mps 765 mmHg 71%
    09:00 +4°C° 0 mm 2 mps 765 mmHg 67%
    10:00 +5°C° 0 mm 2 mps 765 mmHg 62%
    11:00 +7°C° 0 mm 2 mps 765 mmHg 60%
    12:00 +8°C° 0 mm 2 mps 764 mmHg 58%
    13:00 +9°C° 0 mm 2 mps 764 mmHg 56%
    14:00 +10°C° 0 mm 3 mps 764 mmHg 56%
    15:00 +10°C° 0 mm 3 mps 763 mmHg 57%
    16:00 +10°C° 0 mm 3 mps 763 mmHg 57%
    17:00 +8°C° 0 mm 2 mps 763 mmHg 62%
    18:00 +7°C° 0 mm 2 mps 763 mmHg 67%
    19:00 +6°C° 0 mm 2 mps 763 mmHg 73%
    20:00 +5°C° 0 mm 2 mps 763 mmHg 74%
    21:00 +5°C° 0 mm 2 mps 763 mmHg 76%
    22:00 +4°C° 0 mm 2 mps 762 mmHg 77%
    23:00 +4°C° 0 mm 2 mps 762 mmHg 78%

    26 February, Tuesday

    Time Temperature Precipitation Wind Pressure Humidity
    00:00 +3°C° 0 mm 3 mps 762 mmHg 79%
    01:00 +2°C° 0 mm 3 mps 762 mmHg 80%
    02:00 +2°C° 0 mm 3 mps 762 mmHg 80%
    03:00 +2°C° 0 mm 3 mps 762 mmHg 80%
    04:00 +1°C° 0 mm 3 mps 761 mmHg 80%
    05:00 +1°C° 0 mm 3 mps 761 mmHg 81%
    06:00 +1°C° 0 mm 3 mps 761 mmHg 81%
    07:00 +1°C° 0 mm 3 mps 761 mmHg 81%
    08:00 +1°C° 0 mm 4 mps 761 mmHg 74%
    09:00 +4°C° 0 mm 4 mps 761 mmHg 68%
    10:00 +5°C° 0 mm 4 mps 761 mmHg 61%
    11:00 +7°C° 0 mm 4 mps 761 mmHg 57%
    12:00 +8°C° 0 mm 4 mps 760 mmHg 53%
    13:00 +10°C° 0 mm 5 mps 760 mmHg 49%
    14:00 +11°C° 0 mm 4 mps 760 mmHg 51%
    15:00 +11°C° 0 mm 4 mps 759 mmHg 52%
    16:00 +11°C° 0 mm 4 mps 759 mmHg 53%
    17:00 +10°C° 0 mm 3 mps 759 mmHg 60%
    18:00 +8°C° 0 mm 3 mps 759 mmHg 67%
    19:00 +7°C° 0 mm 3 mps 759 mmHg 74%
    20:00 +7°C° 0 mm 2 mps 759 mmHg 77%
    21:00 +6°C° 0 mm 2 mps 759 mmHg 80%
    22:00 +6°C° 0 mm 2 mps 760 mmHg 84%
    23:00 +5°C° 0 mm 2 mps 759 mmHg 86%

    27 February, Wednesday

    Time Temperature Precipitation Wind Pressure Humidity
    00:00 +5°C° 0 mm 2 mps 759 mmHg 88%
    01:00 +4°C° 0 mm 2 mps 759 mmHg 90%
    02:00 +4°C° 0 mm 2 mps 759 mmHg 90%
    03:00 +4°C° 0 mm 2 mps 758 mmHg 91%
    04:00 +3°C° 0 mm 3 mps 758 mmHg 91%
    05:00 +3°C° 0 mm 3 mps 758 mmHg 91%
    06:00 +3°C° 0 mm 3 mps 758 mmHg 91%
    07:00 +2°C° 0 mm 3 mps 757 mmHg 91%
    08:00 +4°C° 0 mm 3 mps 757 mmHg 84%
    09:00 +5°C° 0 mm 4 mps 757 mmHg 78%
    10:00 +7°C° 0 mm 4 mps 757 mmHg 71%
    11:00 +8°C° 0 mm 4 mps 756 mmHg 66%
    12:00 +11°C° 0 mm 4 mps 756 mmHg 60%
    13:00 +12°C° 0 mm 4 mps 755 mmHg 55%
    14:00 +12°C° 0 mm 4 mps 755 mmHg 55%
    15:00 +12°C° 0 mm 4 mps 754 mmHg 56%
    16:00 +12°C° 0 mm 4 mps 754 mmHg 56%
    17:00 +11°C° 0 mm 3 mps 753 mmHg 64%
    18:00 +9°C° 0 mm 3 mps 753 mmHg 71%
    19:00 +8°C° 0 mm 3 mps 753 mmHg 78%
    20:00 +7°C° 0 mm 3 mps 753 mmHg 80%
    21:00 +7°C° 0 mm 2 mps 752 mmHg 82%
    22:00 +6°C° 0 mm 2 mps 752 mmHg 84%
    23:00 +5°C° 0 mm 3 mps 751 mmHg 85%

    28 February, Thursday

    Time Temperature Precipitation Wind Pressure Humidity
    00:00 +5°C° 0 mm 3 mps 751 mmHg 86%
    01:00 +4°C° 0 mm 3 mps 751 mmHg 87%
    02:00 +4°C° 0 mm 3 mps 750 mmHg 87%
    03:00 +4°C° 0 mm 3 mps 750 mmHg 88%
    04:00 +4°C° 0 mm 3 mps 750 mmHg 89%
    05:00 +4°C° 0 mm 3 mps 749 mmHg 90%
    06:00 +3°C° 0 mm 3 mps 749 mmHg 91%
    07:00 +3°C° 0 mm 3 mps 749 mmHg 92%
    08:00 +5°C° 0 mm 3 mps 749 mmHg 85%
    09:00 +6°C° 0 mm 4 mps 749 mmHg 79%
    10:00 +7°C° 0 mm 4 mps 749 mmHg 73%
    11:00 +10°C° 0 mm 4 mps 749 mmHg 69%
    12:00 +11°C° 0 mm 4 mps 749 mmHg 64%
    13:00 +12°C° 0 mm 4 mps 748 mmHg 60%
    14:00 +12°C° 0 mm 4 mps 748 mmHg 61%
    15:00 +12°C° 0 mm 4 mps 748 mmHg 61%
    16:00 +12°C° 0 mm 4 mps 748 mmHg 62%
    17:00 +10°C° 0 mm 3 mps 748 mmHg 69%
    18:00 +9°C° 0 mm 3 mps 748 mmHg 77%
    19:00 +7°C° 0 mm 2 mps 748 mmHg 84%
    20:00 +7°C° 0 mm 2 mps 748 mmHg 87%
    21:00 +6°C° 0 mm 2 mps 749 mmHg 90%
    22:00 +6°C° 0 mm 2 mps 749 mmHg 92%
    23:00 +5°C° 0 mm 2 mps 749 mmHg 93%
    Show more